Change the Weather History Date:

Saturday, October 1, 2011

  Actual Average Record
Temperature  
Mean Temperature 60 °F -  
Max Temperature 66 °F 69 °F 80 °F (2002)
Min Temperature 53 °F 48 °F 41 °F (2005)
Degree Days  
Heating Degree Days 6    
Growing Degree Days 10 (Base 50)    
Moisture  
Dew Point 55 °F    
Average Humidity 83    
Maximum Humidity 95    
Minimum Humidity 68    
Precipitation  
Precipitation 0.30 in - - ()
Sea Level Pressure  
Sea Level Pressure 29.67 in    
Wind  
Wind Speed 7 mph (NW)    
Max Wind Speed 14 mph    
Max Gust Speed -    
Visibility 10 miles    
Events Rain    
Averages and records for this station are not official NWS values.
T = Trace of Precipitation, MM = Missing Value Source: NWS Daily Summary

Daily Weather History Graph

Daily Weather History Graph

Search for Another Location

Airport or City:

Trip Planner

Search our weather history database for the weather conditions in past years. The results will help you decide how hot, cold, wet, or windy it might be!

Date:

Astronomy

Oct. 01, 2011 Rise Set
Actual Time 6:54 AM EDT 6:41 PM EDT
Civil Twilight 6:27 AM EDT 7:08 PM EDT
Nautical Twilight 5:55 AM EDT 7:39 PM EDT
Astronomical Twilight 5:24 AM EDT 8:11 PM EDT
Moon 11:57 AM EDT 9:36 PM EDT
Length of Visible Light 12h 40m
Length of Day
11h 46m
Waxing Crescent, 24% of the Moon is Illuminated
Oct 1
Waxing Crescent
Oct 3
First Quarter
Oct 11
Full
Oct 19
Last Quarter
Oct 26
New

Hourly Weather History & Observations

Time (EDT) Temp. Dew Point Humidity Pressure Visibility Wind Dir Wind Speed Gust Speed Precip Events Conditions
12:55 AM 57.9 °F 55.6 °F 92% 29.69 in 5.0 mi WNW 5.8 mph - 0.16 in Rain Rain
1:12 AM 57.2 °F 55.4 °F 94% 29.67 in 7.0 mi North 5.8 mph - N/A Rain Light Rain
1:38 AM 57.2 °F 55.4 °F 94% 29.65 in 9.0 mi NE 5.8 mph - N/A Rain Light Rain
1:41 AM 57.2 °F 55.4 °F 94% 29.65 in 9.0 mi NE 8.1 mph - N/A Rain Light Rain
1:55 AM 57.2 °F 55.4 °F 94% 29.64 in 10.0 mi NE 9.2 mph - 0.09 in Rain Light Rain
2:01 AM 57.2 °F 55.4 °F 94% 29.62 in 9.0 mi NE 8.1 mph - N/A Rain Light Rain
2:11 AM 57.2 °F 55.4 °F 94% 29.62 in 9.0 mi NE 9.2 mph - N/A Rain Light Rain
2:55 AM 57.2 °F 55.0 °F 92% 29.60 in 10.0 mi North 6.9 mph - 0.04 in Rain Light Rain
3:01 AM 57.2 °F 55.4 °F 94% 29.61 in 10.0 mi North 5.8 mph - N/A   Scattered Clouds
3:55 AM 57.2 °F 55.6 °F 94% 29.62 in 10.0 mi West 3.5 mph - 0.00 in   Mostly Cloudy
4:06 AM 57.2 °F 55.4 °F 94% 29.63 in 10.0 mi West 4.6 mph - N/A   Mostly Cloudy
4:07 AM 57.2 °F 55.4 °F 94% 29.62 in 10.0 mi West 4.6 mph - N/A   Mostly Cloudy
4:13 AM 57.2 °F 55.4 °F 94% 29.62 in 10.0 mi West 4.6 mph - N/A Rain Light Rain
4:38 AM 57.2 °F 55.4 °F 94% 29.61 in 10.0 mi North 4.6 mph - N/A Rain Light Rain
4:42 AM 57.2 °F 55.4 °F 94% 29.61 in 10.0 mi NNE 6.9 mph - N/A Rain Light Rain
4:55 AM 57.2 °F 55.6 °F 94% 29.61 in 10.0 mi North 4.6 mph - 0.00 in Rain Light Rain
5:03 AM 57.2 °F 55.4 °F 94% 29.61 in 10.0 mi North 3.5 mph - N/A   Partly Cloudy
5:55 AM 56.8 °F 55.2 °F 94% 29.62 in 10.0 mi Calm Calm - 0.01 in   Mostly Cloudy
6:13 AM 57.2 °F 55.4 °F 94% 29.62 in 10.0 mi West 5.8 mph - N/A   Overcast
6:17 AM 57.2 °F 55.4 °F 94% 29.62 in 10.0 mi West 5.8 mph - N/A   Overcast
6:50 AM 57.2 °F 55.4 °F 94% 29.64 in 10.0 mi West 10.4 mph - N/A   Scattered Clouds
6:55 AM 56.8 °F 55.4 °F 95% 29.64 in 10.0 mi West 6.9 mph - N/A   Scattered Clouds
7:21 AM 57.2 °F 55.4 °F 94% 29.65 in 10.0 mi West 9.2 mph - N/A   Overcast
7:34 AM 57.2 °F 55.4 °F 94% 29.65 in 10.0 mi West 6.9 mph - N/A   Mostly Cloudy
7:39 AM 57.2 °F 55.4 °F 94% 29.65 in 10.0 mi West 5.8 mph - N/A   Overcast
7:55 AM 57.2 °F 55.4 °F 94% 29.65 in 10.0 mi WNW 5.8 mph - N/A   Overcast
8:55 AM 58.5 °F 54.7 °F 87% 29.66 in 10.0 mi NW 6.9 mph - N/A   Overcast
9:03 AM 59.0 °F 55.4 °F 88% 29.66 in 10.0 mi WNW 5.8 mph - N/A   Overcast
9:55 AM 61.0 °F 54.1 °F 78% 29.67 in 10.0 mi WNW 8.1 mph - N/A   Partly Cloudy
10:48 AM 62.6 °F 53.6 °F 72% 29.67 in 10.0 mi Variable 4.6 mph - N/A   Mostly Cloudy
10:55 AM 63.1 °F 54.7 °F 74% 29.67 in 10.0 mi NW 6.9 mph - N/A   Mostly Cloudy
10:57 AM 62.6 °F 55.4 °F 77% 29.67 in 10.0 mi WNW 6.9 mph - N/A   Mostly Cloudy
11:55 AM 63.7 °F 54.9 °F 73% 29.68 in 10.0 mi WNW 8.1 mph - N/A   Overcast
12:01 PM 64.4 °F 55.4 °F 73% 29.68 in 10.0 mi WNW 9.2 mph - N/A   Overcast
12:07 PM 64.4 °F 55.4 °F 73% 29.68 in 10.0 mi WNW 6.9 mph - N/A   Overcast
12:10 PM 64.4 °F 55.4 °F 73% 29.68 in 10.0 mi West 8.1 mph - N/A   Overcast
12:41 PM 64.4 °F 55.4 °F 73% 29.68 in 10.0 mi WNW 11.5 mph - N/A   Overcast
12:55 PM 63.3 °F 54.5 °F 73% 29.68 in 10.0 mi WNW 9.2 mph - N/A   Overcast
1:17 PM 64.4 °F 55.4 °F 73% 29.67 in 10.0 mi NW 8.1 mph - N/A   Overcast
1:39 PM 66.2 °F 55.4 °F 68% 29.66 in 10.0 mi NW 8.1 mph - N/A   Overcast
1:43 PM 66.2 °F 55.4 °F 68% 29.66 in 10.0 mi NNW 10.4 mph - N/A   Overcast
1:44 PM 66.2 °F 55.4 °F 68% 29.66 in 10.0 mi NNW 9.2 mph - N/A   Overcast
1:55 PM 65.5 °F 55.2 °F 69% 29.66 in 10.0 mi NW 8.1 mph - N/A   Overcast
2:14 PM 66.2 °F 55.4 °F 68% 29.65 in 10.0 mi Variable 6.9 mph - N/A   Overcast
2:46 PM 66.2 °F 55.4 °F 68% 29.66 in 10.0 mi NW 6.9 mph - N/A   Overcast
2:51 PM 66.2 °F 55.4 °F 68% 29.66 in 10.0 mi WNW 10.4 mph - N/A   Overcast
2:55 PM 65.8 °F 55.0 °F 68% 29.66 in 10.0 mi WNW 9.2 mph - N/A   Overcast
3:26 PM 64.4 °F 53.6 °F 68% 29.67 in 10.0 mi NNW 8.1 mph - N/A   Overcast
3:39 PM 64.4 °F 55.4 °F 73% 29.67 in 10.0 mi NW 6.9 mph - N/A   Overcast
3:55 PM 65.1 °F 54.5 °F 68% 29.67 in 10.0 mi WNW 10.4 mph - N/A   Overcast
4:55 PM 64.0 °F 54.3 °F 71% 29.68 in 10.0 mi Variable 4.6 mph - N/A   Mostly Cloudy
5:53 PM 62.6 °F 55.4 °F 77% 29.69 in 10.0 mi North 5.8 mph - N/A   Mostly Cloudy
5:55 PM 62.6 °F 54.7 °F 75% 29.69 in 10.0 mi NNE 5.8 mph - N/A   Mostly Cloudy
6:42 PM 60.8 °F 55.4 °F 82% 29.70 in 10.0 mi Calm Calm - N/A   Overcast
6:55 PM 61.5 °F 55.0 °F 79% 29.70 in 10.0 mi NNW 3.5 mph - N/A   Overcast
7:55 PM 60.3 °F 55.8 °F 85% 29.70 in 10.0 mi Calm Calm - N/A   Overcast
8:26 PM 60.8 °F 55.4 °F 82% 29.71 in 10.0 mi Calm Calm - N/A   Overcast
8:55 PM 59.4 °F 53.6 °F 81% 29.72 in 10.0 mi West 6.9 mph - N/A   Overcast
9:30 PM 59.0 °F 53.6 °F 82% 29.72 in 10.0 mi WSW 8.1 mph - N/A   Overcast
9:32 PM 59.0 °F 53.6 °F 82% 29.72 in 10.0 mi WSW 8.1 mph - N/A   Overcast
9:55 PM 57.9 °F 53.8 °F 86% 29.72 in 10.0 mi WSW 6.9 mph - N/A   Mostly Cloudy
10:22 PM 57.2 °F 53.6 °F 88% 29.72 in 10.0 mi WSW 6.9 mph - N/A   Mostly Cloudy
10:27 PM 57.2 °F 53.6 °F 88% 29.72 in 10.0 mi WSW 6.9 mph - N/A   Mostly Cloudy
10:32 PM 57.2 °F 53.6 °F 88% 29.72 in 10.0 mi SW 6.9 mph - N/A   Mostly Cloudy
10:55 PM 58.1 °F 53.8 °F 86% 29.71 in 10.0 mi NE 8.1 mph - N/A   Overcast
11:41 PM 55.4 °F 50.0 °F 82% 29.72 in 10.0 mi NNE 13.8 mph - N/A Rain Light Rain
11:51 PM 53.6 °F 50.0 °F 88% 29.72 in 10.0 mi NNE 12.7 mph - N/A   Overcast
11:55 PM 54.3 °F 48.6 °F 81% 29.72 in 10.0 mi NNE 11.5 mph - 0.00 in   Overcast